QPF
0.12 0.16 0.14 0.10 0.09 0.08 0.07 0.07 0.07 0.06 0.06 0.06 0.07 0.07 0.08 0.07 0.09 0.08 0.07 0.07 0.09 0.10 0.09 0.07 0.07 0.07 0.07 0.07 0.07 0.06 0.04 0.05 0.05 0.05 0.06 0.05 0.04 0.04 0.05 0.05 0.04 0.05 0.05
0.11 0.13 0.13 0.10 0.09 0.07 0.06 0.07 0.08 0.06 0.06 0.06 0.07 0.07 0.08 0.07 0.08 0.06 0.07 0.07 0.10 0.11 0.10 0.07 0.07 0.07 0.07 0.07 0.08 0.07 0.06 0.06 0.08 0.07 0.05 0.04 0.04 0.05 0.05 0.04 0.05 0.06 0.04
0.09 0.10 0.09 0.08 0.06 0.06 0.06 0.06 0.05 0.06 0.06 0.05 0.05 0.06 0.09 0.08 0.07 0.07 0.06 0.07 0.09 0.09 0.09 0.07 0.06 0.07 0.07 0.08 0.08 0.07 0.07 0.07 0.06 0.05 0.04 0.03 0.03 0.04 0.04 0.04 0.05 0.04 0.04
0.08 0.06 0.05 0.06 0.06 0.06 0.07 0.05 0.05 0.06 0.05 0.04 0.04 0.05 0.11 0.10 0.08 0.08 0.07 0.08 0.10 0.09 0.10 0.09 0.08 0.08 0.09 0.09 0.09 0.07 0.07 0.07 0.06 0.04 0.02 0.02 0.03 0.04 0.05 0.04 0.04 0.03 0.04
0.06 0.06 0.07 0.06 0.05 0.05 0.06 0.05 0.05 0.05 0.05 0.05 0.05 0.05 0.07 0.11 0.09 0.09 0.08 0.10 0.10 0.09 0.09 0.10 0.10 0.09 0.08 0.08 0.07 0.06 0.06 0.05 0.05 0.02 0.02 0.03 0.04 0.05 0.06 0.04 0.04 0.04 0.04
0.06 0.05 0.08 0.07 0.04 0.06 0.07 0.05 0.04 0.04 0.04 0.04 0.04 0.04 0.06 0.10 0.09 0.09 0.09 0.12 0.10 0.08 0.08 0.09 0.09 0.07 0.06 0.05 0.05 0.04 0.04 0.04 0.03 0.03 0.03 0.03 0.04 0.05 0.05 0.04 0.04 0.03 0.04
0.04 0.05 0.06 0.07 0.05 0.05 0.06 0.05 0.05 0.04 0.02 0.02 0.03 0.04 0.06 0.10 0.10 0.09 0.10 0.12 0.10 0.08 0.08 0.07 0.06 0.05 0.04 0.04 0.04 0.03 0.04 0.04 0.03 0.03 0.03 0.05 0.05 0.05 0.05 0.04 0.04 0.03 0.04
0.04 0.06 0.07 0.07 0.06 0.05 0.05 0.03 0.03 0.04 0.03 0.03 0.04 0.05 0.07 0.08 0.09 0.10 0.13 0.13 0.11 0.08 0.07 0.06 0.05 0.04 0.04 0.04 0.03 0.02 0.04 0.04 0.02 0.02 0.02 0.04 0.05 0.04 0.04 0.04 0.04 0.03 0.04
0.04 0.04 0.06 0.06 0.04 0.05 0.04 0.02 0.03 0.05 0.05 0.04 0.04 0.05 0.07 0.08 0.09 0.10 0.16 0.16 0.10 0.09 0.07 0.05 0.05 0.05 0.04 0.05 0.04 0.04 0.05 0.04 0.02 0.02 0.02 0.05 0.05 0.03 0.04 0.04 0.03 0.03 0.03
0.04 0.04 0.05 0.05 0.04 0.03 0.03 0.02 0.04 0.05 0.06 0.06 0.06 0.08 0.09 0.11 0.12 0.16 0.21 0.16 0.10 0.10 0.08 0.06 0.06 0.07 0.06 0.06 0.05 0.05 0.05 0.04 0.01 0.01 0.03 0.03 0.03 0.04 0.05 0.04 0.03 0.04 0.03
0.05 0.05 0.04 0.03 0.03 0.03 0.03 0.03 0.05 0.04 0.05 0.05 0.07 0.10 0.10 0.13 0.19 0.26 0.26 0.19 0.16 0.13 0.10 0.07 0.07 0.06 0.05 0.04 0.05 0.05 0.03 0.03 0.02 0.01 0.02 0.02 0.03 0.05 0.07 0.07 0.05 0.05 0.05
0.05 0.04 0.04 0.03 0.02 0.02 0.02 0.02 0.03 0.03 0.04 0.05 0.08 0.11 0.13 0.24 0.32 0.34 0.32 0.23 0.20 0.15 0.11 0.09 0.06 0.04 0.03 0.04 0.05 0.05 0.04 0.02 0.02 0.02 0.02 0.02 0.03 0.05 0.08 0.07 0.07 0.06 0.07
0.01 0.01 0.03 0.03 0.03 0.03 0.02 0.02 0.02 0.03 0.04 0.07 0.09 0.13 0.23 0.36 0.41 0.40 0.33 0.27 0.23 0.15 0.12 0.09 0.05 0.03 0.04 0.03 0.05 0.06 0.04 0.04 0.04 0.02 0.02 0.02 0.03 0.06 0.10 0.08 0.08 0.09 0.08
0.01 0.01 0.02 0.02 0.02 0.02 0.02 0.03 0.04 0.05 0.07 0.11 0.14 0.19 0.28 0.39 0.41 0.37 0.26 0.22 0.18 0.17 0.15 0.10 0.07 0.04 0.04 0.03 0.04 0.04 0.05 0.06 0.05 0.04 0.04 0.03 0.04 0.06 0.08 0.09 0.10 0.08 0.08
0.01 0.01 0.02 0.02 0.03 0.04 0.05 0.06 0.04 0.07 0.11 0.17 0.20 0.22 0.26 0.29 0.28 0.22 0.16 0.16 0.13 0.14 0.15 0.13 0.08 0.05 0.04 0.03 0.03 0.04 0.06 0.07 0.05 0.05 0.05 0.04 0.05 0.06 0.08 0.11 0.15 0.13 0.09
0.02 0.02 0.02 0.02 0.03 0.03 0.05 0.07 0.08 0.10 0.15 0.19 0.21 0.24 0.24 0.19 0.18 0.14 0.12 0.13 0.11 0.10 0.09 0.10 0.09 0.10 0.08 0.06 0.05 0.04 0.06 0.07 0.05 0.04 0.06 0.06 0.05 0.06 0.09 0.12 0.16 0.16 0.11
0.02 0.01 0.01 0.01 0.02 0.03 0.05 0.06 0.06 0.08 0.11 0.16 0.20 0.22 0.19 0.12 0.11 0.11 0.10 0.11 0.11 0.09 0.09 0.09 0.09 0.10 0.07 0.06 0.06 0.07 0.06 0.05 0.04 0.04 0.04 0.05 0.04 0.04 0.06 0.09 0.12 0.13 0.13
0.03 0.02 0.02 0.02 0.02 0.04 0.06 0.07 0.05 0.04 0.06 0.09 0.14 0.16 0.14 0.09 0.08 0.08 0.07 0.08 0.09 0.08 0.09 0.10 0.10 0.09 0.08 0.08 0.07 0.08 0.08 0.08 0.05 0.04 0.03 0.03 0.04 0.04 0.06 0.08 0.11 0.11 0.13
0.03 0.02 0.02 0.03 0.03 0.03 0.03 0.04 0.04 0.04 0.05 0.05 0.08 0.09 0.09 0.07 0.07 0.07 0.07 0.07 0.08 0.09 0.11 0.08 0.07 0.09 0.10 0.09 0.07 0.08 0.08 0.08 0.07 0.04 0.02 0.02 0.03 0.03 0.06 0.07 0.08 0.09 0.09
0.02 0.02 0.03 0.02 0.02 0.03 0.03 0.04 0.04 0.04 0.05 0.05 0.06 0.06 0.05 0.05 0.05 0.07 0.06 0.05 0.06 0.08 0.10 0.09 0.11 0.11 0.11 0.11 0.07 0.06 0.07 0.05 0.05 0.05 0.03 0.04 0.04 0.03 0.04 0.06 0.08 0.07 0.06
0.02 0.02 0.02 0.03 0.03 0.04 0.03 0.04 0.03 0.03 0.04 0.05 0.04 0.03 0.04 0.04 0.04 0.05 0.04 0.05 0.05 0.06 0.08 0.10 0.11 0.11 0.10 0.10 0.10 0.08 0.06 0.03 0.03 0.03 0.03 0.04 0.04 0.03 0.04 0.06 0.07 0.08 0.09
0.02 0.01 0.01 0.02 0.02 0.03 0.03 0.03 0.04 0.03 0.03 0.04 0.04 0.03 0.03 0.03 0.03 0.03 0.05 0.04 0.04 0.05 0.07 0.09 0.10 0.10 0.10 0.10 0.12 0.10 0.07 0.05 0.04 0.02 0.01 0.01 0.02 0.03 0.04 0.04 0.05 0.08 0.11
0.01 0.01 0.02 0.03 0.03 0.02 0.02 0.03 0.04 0.04 0.02 0.02 0.02 0.03 0.02 0.02 0.02 0.03 0.04 0.04 0.04 0.05 0.08 0.10 0.08 0.09 0.09 0.09 0.11 0.13 0.09 0.07 0.05 0.03 0.02 0.02 0.03 0.05 0.05 0.05 0.05 0.07 0.07
0.02 0.02 0.03 0.03 0.03 0.02 0.02 0.02 0.03 0.03 0.02 0.02 0.02 0.03 0.03 0.03 0.02 0.02 0.04 0.05 0.06 0.05 0.07 0.08 0.06 0.07 0.08 0.09 0.09 0.10 0.09 0.08 0.08 0.07 0.04 0.04 0.06 0.06 0.05 0.03 0.03 0.04 0.05
0.02 0.02 0.03 0.02 0.02 0.02 0.02 0.02 0.02 0.02 0.01 0.01 0.02 0.03 0.03 0.03 0.02 0.02 0.05 0.06 0.07 0.06 0.06 0.07 0.08 0.07 0.08 0.09 0.11 0.11 0.11 0.10 0.09 0.08 0.08 0.09 0.08 0.07 0.05 0.04 0.04 0.05 0.05
0.01 0.01 0.01 0.02 0.02 0.02 0.02 0.01 0.01 0.02 0.03 0.02 0.03 0.04 0.04 0.04 0.04 0.04 0.05 0.07 0.07 0.07 0.08 0.09 0.08 0.08 0.08 0.09 0.10 0.10 0.10 0.10 0.09 0.12 0.13 0.11 0.10 0.09 0.05 0.05 0.06 0.07 0.08
MSLP
1013.10 1012.67 1012.34 1012.18 1012.20 1012.39 1012.68 1013.02 1013.35 1013.63 1013.85 1014.04 1014.24 1014.49 1014.81 1015.19 1015.61 1016.01 1016.33 1016.54 1016.62 1016.61 1016.53 1016.44 1016.38 1016.37 1016.41 1016.50 1016.60 1016.68 1016.74 1016.78 1016.82 1016.88 1016.97 1017.11 1017.29 1017.48 1017.67 1017.83 1017.95 1018.04 1018.10
1013.42 1013.06 1012.79 1012.68 1012.73 1012.93 1013.23 1013.55 1013.85 1014.10 1014.28 1014.44 1014.62 1014.85 1015.16 1015.54 1015.94 1016.32 1016.62 1016.80 1016.87 1016.84 1016.75 1016.66 1016.61 1016.61 1016.67 1016.76 1016.85 1016.92 1016.96 1016.97 1016.97 1017.00 1017.07 1017.20 1017.37 1017.58 1017.78 1017.96 1018.10 1018.21 1018.29
1013.64 1013.35 1013.15 1013.10 1013.20 1013.44 1013.77 1014.10 1014.40 1014.62 1014.78 1014.90 1015.04 1015.23 1015.50 1015.82 1016.18 1016.50 1016.76 1016.91 1016.96 1016.93 1016.87 1016.81 1016.79 1016.83 1016.91 1017.00 1017.08 1017.12 1017.12 1017.08 1017.04 1017.03 1017.07 1017.18 1017.36 1017.57 1017.78 1017.99 1018.16 1018.30 1018.42
1013.79 1013.57 1013.43 1013.44 1013.61 1013.91 1014.28 1014.64 1014.95 1015.16 1015.30 1015.38 1015.48 1015.61 1015.81 1016.06 1016.34 1016.60 1016.81 1016.92 1016.96 1016.95 1016.92 1016.91 1016.95 1017.03 1017.14 1017.24 1017.30 1017.30 1017.24 1017.14 1017.05 1016.99 1017.01 1017.11 1017.28 1017.50 1017.74 1017.98 1018.18 1018.36 1018.52
1013.89 1013.71 1013.63 1013.71 1013.95 1014.31 1014.73 1015.13 1015.45 1015.67 1015.79 1015.85 1015.89 1015.97 1016.10 1016.27 1016.48 1016.67 1016.81 1016.90 1016.94 1016.95 1016.96 1017.01 1017.11 1017.24 1017.37 1017.47 1017.50 1017.45 1017.33 1017.17 1017.02 1016.92 1016.92 1017.01 1017.20 1017.45 1017.71 1017.97 1018.21 1018.41 1018.60
1013.98 1013.82 1013.79 1013.92 1014.22 1014.63 1015.09 1015.52 1015.86 1016.08 1016.19 1016.22 1016.24 1016.27 1016.35 1016.46 1016.60 1016.74 1016.84 1016.90 1016.94 1016.98 1017.04 1017.14 1017.28 1017.45 1017.59 1017.67 1017.66 1017.56 1017.38 1017.16 1016.96 1016.84 1016.83 1016.94 1017.15 1017.43 1017.72 1018.01 1018.26 1018.48 1018.67
1014.07 1013.93 1013.93 1014.10 1014.43 1014.88 1015.36 1015.80 1016.13 1016.35 1016.45 1016.47 1016.48 1016.49 1016.54 1016.63 1016.74 1016.83 1016.91 1016.96 1017.00 1017.06 1017.15 1017.28 1017.45 1017.63 1017.76 1017.82 1017.76 1017.60 1017.37 1017.10 1016.88 1016.75 1016.76 1016.89 1017.14 1017.45 1017.78 1018.09 1018.35 1018.56 1018.74
1014.20 1014.07 1014.08 1014.27 1014.62 1015.07 1015.54 1015.95 1016.27 1016.46 1016.55 1016.58 1016.58 1016.61 1016.67 1016.76 1016.86 1016.96 1017.02 1017.06 1017.10 1017.16 1017.25 1017.39 1017.56 1017.73 1017.83 1017.85 1017.75 1017.54 1017.27 1016.98 1016.75 1016.64 1016.68 1016.85 1017.15 1017.50 1017.86 1018.18 1018.44 1018.64 1018.79
1014.39 1014.25 1014.27 1014.47 1014.81 1015.23 1015.65 1016.02 1016.28 1016.43 1016.51 1016.54 1016.57 1016.63 1016.73 1016.85 1016.97 1017.07 1017.14 1017.17 1017.19 1017.23 1017.30 1017.42 1017.56 1017.69 1017.76 1017.73 1017.59 1017.36 1017.06 1016.78 1016.56 1016.48 1016.55 1016.78 1017.12 1017.52 1017.91 1018.24 1018.50 1018.67 1018.80
1014.62 1014.49 1014.52 1014.71 1015.03 1015.39 1015.75 1016.03 1016.22 1016.33 1016.37 1016.41 1016.47 1016.57 1016.72 1016.89 1017.04 1017.16 1017.21 1017.22 1017.21 1017.21 1017.24 1017.31 1017.40 1017.48 1017.51 1017.46 1017.29 1017.05 1016.75 1016.48 1016.30 1016.25 1016.37 1016.64 1017.02 1017.45 1017.86 1018.21 1018.47 1018.63 1018.74
1014.89 1014.78 1014.83 1015.02 1015.30 1015.60 1015.87 1016.06 1016.17 1016.21 1016.22 1016.25 1016.34 1016.48 1016.68 1016.89 1017.06 1017.18 1017.22 1017.20 1017.14 1017.08 1017.04 1017.05 1017.09 1017.13 1017.12 1017.05 1016.88 1016.65 1016.38 1016.14 1015.98 1015.98 1016.12 1016.42 1016.81 1017.26 1017.68 1018.04 1018.30 1018.49 1018.60
1015.16 1015.10 1015.17 1015.36 1015.61 1015.85 1016.04 1016.14 1016.16 1016.14 1016.11 1016.14 1016.24 1016.41 1016.64 1016.87 1017.05 1017.16 1017.17 1017.09 1016.97 1016.84 1016.74 1016.68 1016.67 1016.67 1016.66 1016.58 1016.44 1016.24 1016.01 1015.80 1015.68 1015.69 1015.84 1016.12 1016.50 1016.93 1017.34 1017.70 1017.99 1018.20 1018.36
1015.41 1015.41 1015.53 1015.73 1015.96 1016.15 1016.27 1016.29 1016.25 1016.17 1016.11 1016.12 1016.22 1016.41 1016.64 1016.87 1017.04 1017.11 1017.07 1016.94 1016.74 1016.54 1016.38 1016.27 1016.23 1016.22 1016.21 1016.16 1016.06 1015.91 1015.73 1015.56 1015.46 1015.45 1015.57 1015.80 1016.13 1016.50 1016.88 1017.23 1017.53 1017.78 1018.01
1015.61 1015.68 1015.85 1016.08 1016.30 1016.47 1016.54 1016.52 1016.43 1016.32 1016.24 1016.24 1016.33 1016.50 1016.72 1016.92 1017.05 1017.07 1016.98 1016.78 1016.53 1016.27 1016.06 1015.92 1015.86 1015.86 1015.88 1015.89 1015.85 1015.76 1015.64 1015.50 1015.40 1015.36 1015.41 1015.55 1015.77 1016.04 1016.35 1016.66 1016.96 1017.25 1017.55
1015.77 1015.90 1016.11 1016.37 1016.61 1016.77 1016.83 1016.80 1016.70 1016.58 1016.50 1016.49 1016.57 1016.71 1016.89 1017.04 1017.12 1017.09 1016.94 1016.69 1016.39 1016.10 1015.87 1015.72 1015.67 1015.69 1015.76 1015.83 1015.87 1015.86 1015.79 1015.68 1015.57 1015.47 1015.43 1015.44 1015.52 1015.66 1015.84 1016.08 1016.35 1016.66 1017.01
1015.89 1016.07 1016.32 1016.59 1016.85 1017.02 1017.11 1017.10 1017.02 1016.93 1016.86 1016.85 1016.91 1017.03 1017.15 1017.25 1017.27 1017.19 1016.99 1016.71 1016.40 1016.10 1015.86 1015.72 1015.70 1015.76 1015.89 1016.03 1016.14 1016.21 1016.20 1016.13 1016.01 1015.86 1015.70 1015.57 1015.48 1015.45 1015.49 1015.60 1015.80 1016.08 1016.45
1016.02 1016.21 1016.47 1016.76 1017.02 1017.22 1017.35 1017.39 1017.37 1017.32 1017.28 1017.28 1017.33 1017.41 1017.48 1017.52 1017.49 1017.36 1017.14 1016.86 1016.55 1016.26 1016.04 1015.93 1015.93 1016.04 1016.22 1016.43 1016.62 1016.77 1016.83 1016.81 1016.69 1016.50 1016.25 1015.99 1015.73 1015.52 1015.38 1015.34 1015.42 1015.63 1015.96
1016.19 1016.37 1016.61 1016.88 1017.15 1017.38 1017.55 1017.66 1017.70 1017.72 1017.73 1017.74 1017.77 1017.81 1017.84 1017.83 1017.76 1017.61 1017.39 1017.12 1016.83 1016.57 1016.38 1016.30 1016.32 1016.46 1016.68 1016.95 1017.22 1017.44 1017.59 1017.63 1017.55 1017.35 1017.06 1016.69 1016.30 1015.92 1015.60 1015.39 1015.33 1015.42 1015.65
1016.46 1016.59 1016.78 1017.02 1017.28 1017.52 1017.74 1017.91 1018.03 1018.11 1018.16 1018.19 1018.21 1018.22 1018.20 1018.15 1018.05 1017.90 1017.69 1017.45 1017.20 1016.98 1016.82 1016.76 1016.79 1016.94 1017.18 1017.48 1017.81 1018.12 1018.36 1018.50 1018.50 1018.35 1018.06 1017.64 1017.16 1016.65 1016.18 1015.81 1015.58 1015.52 1015.62
1016.83 1016.90 1017.02 1017.21 1017.43 1017.68 1017.93 1018.16 1018.34 1018.48 1018.57 1018.61 1018.61 1018.59 1018.54 1018.46 1018.34 1018.20 1018.02 1017.82 1017.62 1017.44 1017.30 1017.23 1017.26 1017.39 1017.62 1017.94 1018.32 1018.71 1019.05 1019.31 1019.43 1019.38 1019.15 1018.77 1018.26 1017.68 1017.11 1016.60 1016.22 1016.00 1015.94
1017.31 1017.31 1017.36 1017.47 1017.66 1017.90 1018.16 1018.43 1018.66 1018.84 1018.95 1019.00 1018.99 1018.93 1018.85 1018.74 1018.63 1018.50 1018.36 1018.21 1018.05 1017.90 1017.77 1017.68 1017.67 1017.76 1017.96 1018.27 1018.67 1019.13 1019.58 1019.98 1020.25 1020.35 1020.25 1019.95 1019.49 1018.92 1018.30 1017.71 1017.22 1016.86 1016.66
1017.86 1017.80 1017.77 1017.82 1017.96 1018.18 1018.45 1018.74 1019.00 1019.20 1019.32 1019.36 1019.33 1019.25 1019.14 1019.02 1018.91 1018.80 1018.70 1018.59 1018.47 1018.34 1018.20 1018.08 1018.01 1018.03 1018.18 1018.46 1018.87 1019.38 1019.93 1020.46 1020.89 1021.17 1021.23 1021.08 1020.73 1020.22 1019.63 1019.02 1018.47 1018.03 1017.72
1018.43 1018.33 1018.24 1018.24 1018.33 1018.53 1018.79 1019.08 1019.36 1019.57 1019.69 1019.72 1019.67 1019.56 1019.43 1019.30 1019.19 1019.12 1019.05 1018.98 1018.89 1018.76 1018.60 1018.43 1018.30 1018.25 1018.32 1018.54 1018.93 1019.47 1020.09 1020.74 1021.32 1021.77 1022.01 1022.04 1021.84 1021.45 1020.95 1020.39 1019.85 1019.39 1019.03
1018.95 1018.83 1018.72 1018.68 1018.74 1018.91 1019.16 1019.46 1019.73 1019.95 1020.06 1020.08 1020.00 1019.88 1019.73 1019.60 1019.51 1019.45 1019.42 1019.38 1019.30 1019.18 1018.99 1018.78 1018.58 1018.44 1018.43 1018.59 1018.94 1019.46 1020.12 1020.84 1021.54 1022.13 1022.54 1022.73 1022.70 1022.47 1022.10 1021.65 1021.19 1020.77 1020.43
1019.37 1019.26 1019.14 1019.09 1019.14 1019.30 1019.55 1019.83 1020.11 1020.32 1020.43 1020.43 1020.35 1020.21 1020.06 1019.93 1019.85 1019.82 1019.81 1019.79 1019.73 1019.61 1019.40 1019.15 1018.89 1018.67 1018.58 1018.67 1018.96 1019.44 1020.09 1020.84 1021.59 1022.27 1022.80 1023.13 1023.25 1023.18 1022.97 1022.67 1022.34 1022.03 1021.77
1019.65 1019.58 1019.48 1019.44 1019.50 1019.66 1019.90 1020.19 1020.46 1020.67 1020.78 1020.78 1020.69 1020.55 1020.41 1020.29 1020.22 1020.21 1020.22 1020.22 1020.18 1020.05 1019.84 1019.55 1019.25 1018.98 1018.82 1018.83 1019.04 1019.47 1020.06 1020.78 1021.53 1022.24 1022.82 1023.24 1023.49 1023.56 1023.51 1023.37 1023.20 1023.04 1022.91
Thickness
5786 5785 5780 5779 5779 5779 5778 5778 5777 5777 5776 5776 5775 5774 5773 5773 5771 5770 5769 5767 5766 5764 5763 5762 5761 5760 5760 5758 5758 5756 5754 5753 5752 5751 5750 5749 5748 5747 5746 5745 5745 5745 5742
5789 5785 5780 5779 5778 5777 5777 5776 5776 5775 5775 5774 5773 5772 5771 5770 5769 5768 5767 5766 5764 5762 5761 5760 5759 5758 5758 5757 5755 5754 5752 5751 5751 5750 5749 5748 5746 5745 5744 5744 5744 5743 5740
5789 5786 5781 5778 5777 5776 5776 5775 5774 5774 5773 5772 5771 5770 5769 5768 5767 5766 5765 5764 5762 5761 5760 5759 5758 5757 5756 5755 5754 5752 5751 5751 5750 5749 5749 5750 5747 5744 5743 5742 5741 5740 5739
5789 5787 5783 5777 5776 5775 5775 5774 5773 5772 5772 5771 5769 5769 5768 5766 5765 5764 5763 5762 5761 5759 5758 5757 5756 5755 5754 5753 5752 5751 5750 5749 5749 5749 5752 5752 5748 5743 5741 5740 5739 5738 5737
5790 5787 5780 5777 5775 5774 5773 5772 5772 5771 5770 5769 5768 5767 5766 5765 5764 5762 5761 5760 5759 5758 5756 5756 5755 5754 5753 5751 5750 5749 5748 5748 5748 5750 5752 5750 5747 5742 5740 5739 5738 5737 5736
5790 5787 5780 5776 5774 5773 5772 5771 5771 5770 5769 5768 5767 5766 5764 5763 5762 5761 5760 5758 5757 5756 5755 5754 5753 5752 5751 5750 5749 5748 5748 5748 5749 5753 5751 5749 5747 5741 5740 5738 5737 5735 5734
5790 5787 5782 5775 5773 5772 5771 5770 5770 5769 5768 5767 5766 5764 5763 5762 5761 5760 5759 5757 5756 5755 5754 5753 5752 5751 5750 5749 5748 5748 5747 5748 5752 5753 5750 5749 5745 5741 5739 5738 5736 5735 5734
5789 5786 5780 5775 5773 5771 5770 5769 5768 5768 5767 5766 5765 5764 5763 5762 5760 5759 5758 5756 5755 5754 5753 5752 5751 5750 5749 5749 5748 5748 5747 5748 5751 5753 5751 5748 5743 5740 5738 5737 5735 5734 5733
5789 5787 5783 5779 5774 5771 5769 5768 5767 5767 5766 5765 5764 5763 5762 5761 5760 5758 5757 5756 5755 5754 5753 5752 5751 5750 5749 5748 5748 5747 5747 5748 5752 5752 5751 5747 5741 5739 5738 5736 5735 5733 5732
5786 5785 5783 5781 5778 5776 5772 5768 5767 5766 5765 5765 5764 5763 5762 5761 5760 5758 5757 5756 5754 5753 5752 5751 5750 5749 5749 5748 5747 5747 5747 5748 5753 5752 5750 5746 5741 5738 5737 5736 5734 5733 5732
5782 5782 5782 5781 5779 5778 5775 5770 5768 5766 5766 5765 5764 5763 5763 5764 5763 5760 5758 5756 5754 5753 5752 5751 5750 5749 5749 5748 5747 5747 5748 5752 5753 5752 5749 5743 5740 5738 5736 5735 5734 5733 5731
5780 5781 5780 5780 5778 5777 5775 5772 5771 5770 5768 5767 5766 5765 5765 5763 5762 5761 5757 5755 5754 5753 5752 5751 5750 5750 5750 5751 5749 5749 5752 5753 5752 5751 5747 5742 5740 5738 5736 5735 5733 5732 5730
5782 5780 5780 5778 5776 5776 5774 5773 5771 5770 5768 5768 5765 5764 5764 5764 5763 5762 5760 5757 5755 5754 5754 5752 5753 5754 5754 5753 5752 5752 5753 5753 5752 5750 5746 5741 5739 5737 5736 5734 5733 5731 5730
5782 5781 5780 5777 5774 5773 5772 5772 5770 5770 5769 5768 5765 5764 5764 5763 5762 5761 5759 5758 5757 5755 5754 5754 5753 5754 5753 5752 5752 5752 5752 5751 5750 5748 5744 5741 5739 5738 5736 5734 5733 5731 5729
5781 5781 5780 5777 5774 5771 5769 5769 5770 5768 5768 5766 5764 5763 5762 5763 5761 5761 5758 5757 5757 5755 5754 5753 5753 5753 5752 5751 5752 5752 5751 5750 5749 5748 5744 5741 5739 5737 5736 5735 5733 5731 5730
5782 5781 5781 5777 5774 5771 5769 5767 5767 5767 5765 5765 5764 5762 5761 5761 5759 5758 5757 5756 5756 5755 5754 5753 5753 5752 5752 5752 5751 5751 5750 5750 5748 5747 5746 5743 5740 5738 5737 5735 5733 5731 5730
5784 5783 5781 5778 5775 5772 5770 5769 5768 5767 5766 5764 5762 5760 5759 5759 5757 5757 5756 5756 5755 5755 5753 5753 5752 5752 5751 5751 5750 5750 5749 5748 5749 5747 5746 5745 5743 5740 5738 5736 5734 5732 5731
5786 5783 5781 5781 5777 5773 5770 5768 5769 5768 5767 5764 5762 5760 5758 5757 5756 5756 5756 5756 5754 5755 5754 5753 5752 5751 5750 5750 5749 5750 5749 5747 5747 5747 5746 5745 5744 5743 5740 5737 5735 5733 5731
5787 5784 5781 5779 5777 5775 5772 5770 5769 5767 5766 5765 5763 5761 5758 5757 5757 5757 5757 5756 5755 5755 5754 5754 5753 5751 5749 5748 5749 5748 5748 5747 5746 5746 5746 5745 5743 5743 5742 5739 5736 5734 5732
5789 5785 5782 5779 5777 5775 5774 5771 5769 5767 5767 5765 5763 5760 5759 5758 5757 5757 5757 5756 5756 5755 5753 5752 5750 5749 5748 5747 5749 5748 5748 5748 5747 5746 5746 5745 5743 5742 5742 5740 5737 5735 5732
5789 5786 5783 5780 5777 5775 5774 5772 5769 5767 5766 5766 5764 5761 5760 5759 5758 5757 5758 5756 5755 5754 5752 5752 5751 5748 5747 5747 5745 5744 5745 5747 5746 5745 5745 5745 5744 5742 5741 5739 5738 5737 5734
5791 5787 5784 5781 5779 5777 5775 5773 5771 5769 5768 5767 5765 5762 5760 5759 5758 5758 5756 5756 5755 5753 5751 5750 5748 5748 5748 5748 5745 5742 5739 5740 5741 5745 5744 5743 5742 5742 5741 5739 5737 5735 5734
5793 5790 5788 5784 5781 5779 5777 5775 5772 5769 5769 5768 5765 5763 5761 5759 5758 5757 5756 5755 5754 5754 5751 5750 5748 5747 5746 5747 5748 5744 5739 5737 5738 5740 5741 5741 5740 5739 5739 5738 5737 5734 5732
5797 5795 5790 5786 5783 5781 5778 5776 5772 5769 5767 5766 5765 5764 5762 5760 5758 5757 5756 5754 5753 5753 5751 5750 5750 5748 5746 5745 5746 5746 5745 5744 5737 5734 5736 5738 5737 5736 5737 5737 5736 5733 5730
5801 5798 5793 5789 5785 5782 5780 5776 5773 5771 5770 5769 5767 5763 5761 5761 5758 5757 5755 5753 5752 5752 5750 5749 5748 5747 5747 5746 5745 5744 5742 5741 5740 5735 5730 5732 5734 5735 5734 5733 5732 5731 5728
5804 5800 5796 5790 5786 5783 5780 5778 5774 5771 5769 5767 5764 5762 5762 5761 5759 5757 5755 5753 5751 5751 5749 5748 5747 5746 5746 5744 5743 5743 5741 5739 5737 5736 5732 5729 5728 5730 5731 5730 5729 5727 5725